User: anonymous   Login
Location: Unspecified
(0.0000°N, 0.0000°E)
Time: 21:20:36
(UTC+00:00)
Language:

UWE-1 - Orbit

View from above orbital plane
View from above orbital plane
View from above satellite
View from above satellite

Ground track
Ground track

The orbit data is extracted from the following two-line orbital elements,

1 28892U 05043C   17141.88824909 +.00000197 +00000-0 +46829-4 0  9993
2 28892 097.8674 303.9194 0015365 222.7569 137.2440 14.63333144616493
Epoch (UTC): 21 May 2017 21:19:04
Eccentricity: 0.0015365
inclination: 97.8674°
perigee height: 671 km
apogee height: 693 km
right ascension of ascending node: 303.9194°
argument of perigee: 222.7569°
revolutions per day: 14.63333144
mean anomaly at epoch: 137.2440°
orbit number at epoch: 61649

The dashed part of the orbit path shows where the satellite is in the earth's shadow,  

DLR